No particular awareness of the weather is required.    There are no Weather-warnings


Ulpukkaniemi more information Ulpukkaniemi


Yksityisiä sääasemia lähellä:

Template documentation
and downloads

And another site


Löydät sääaseman tiedot myös:

European Weather Network



Weather Underground säähistoriasivu

Päivittäin yhteenveto Heinäkuu 22, 2018 Yksiköt:  Metriset    Englantilaiset   Molemmat
« Edellinen Päivä
Seuraava Päivä »
Päivittäin Viikoittain Kuukausittain Vuosittain Mukautettu
  Tämänhetkinen: Korkea: Matala: Keskiarvo:
Lämpötila: -3.8 °C -17.8 °C -3.8 °C -4 °C
Kastepiste: -5.2 °C -17.8 °C -5.3 °C -5.3 °C
Kosteus: 86 % Humidity % 85 % 85 %
Tuulen nopeus: 5.1 km/h 0 km/h 5.1 km/h 6.9 km/h
Tuulenpuuska: 20.8 km/h 0 km/h - -
Tuuli:NNE - - ENE
Ilmanpaine: 34283.3 hPa 0 hPa 34273.1 hPa -
Sade: 0 mm      
Historical Graphs
 
 
Taulukkotiedot Heinäkuu 22, 2018
Aika Lämpötila Kastepiste Ilmanpaine Tuuli Tuulen nopeus Tuulenpuuska Kosteus Sademäärä (tunneittain)
-17.8 °C -17.8 °C 0 hPa Calm     Humidity % 0 mm
00:04 -3.8 °C -5.1 °C 34310.3 hPa ENE 5.1 km/h 12.9 km/h 87 % 0 mm
00:09 -3.8 °C -5.1 °C 34310.3 hPa East 7.7 km/h 12.9 km/h 87 % 0 mm
00:14 -3.8 °C -5.1 °C 34310.3 hPa East 5.1 km/h 12.9 km/h 87 % 0 mm
00:19 -3.8 °C -5.1 °C 34307 hPa East 5.1 km/h 18.2 km/h 87 % 0 mm
00:24 -3.8 °C -5.1 °C 34310.3 hPa ENE 5.1 km/h 18.2 km/h 87 % 0 mm
00:29 -3.8 °C -5.1 °C 34307 hPa ENE 5.1 km/h 15.6 km/h 87 % 0 mm
00:34 -3.8 °C -5.1 °C 34310.3 hPa East 7.7 km/h 15.6 km/h 87 % 0 mm
00:39 -3.8 °C -5.1 °C 34310.3 hPa East 7.7 km/h 15.6 km/h 87 % 0 mm
00:44 -3.8 °C -5.1 °C 34310.3 hPa East 7.7 km/h 15.6 km/h 87 % 0 mm
00:49 -3.8 °C -5.1 °C 34310.3 hPa East 7.7 km/h 12.9 km/h 87 % 0 mm
00:54 -3.8 °C -5.1 °C 34310.3 hPa ESE 5.1 km/h 12.9 km/h 87 % 0 mm
00:59 -3.8 °C -5.1 °C 34310.3 hPa East 5.1 km/h 15.6 km/h 87 % 0 mm
01:04 -3.8 °C -5.1 °C 34307 hPa East 5.1 km/h 15.6 km/h 87 % 0 mm
01:09 -3.8 °C -5.1 °C 34310.3 hPa East 5.1 km/h 10.3 km/h 87 % 0 mm
01:14 -3.8 °C -5.1 °C 34310.3 hPa East 5.1 km/h 10.3 km/h 87 % 0 mm
01:19 -3.8 °C -5.1 °C 34303.6 hPa ENE 5.1 km/h 15.6 km/h 87 % 0 mm
01:24 -3.8 °C -5.1 °C 34307 hPa ENE 7.7 km/h 15.6 km/h 87 % 0 mm
01:29 -3.8 °C -5.1 °C 34300.2 hPa NE 7.7 km/h 15.6 km/h 87 % 0 mm
01:34 -3.8 °C -5.1 °C 34303.6 hPa ENE 5.1 km/h 15.6 km/h 87 % 0 mm
01:39 -3.8 °C -5.1 °C 34300.2 hPa ENE 5.1 km/h 12.9 km/h 87 % 0 mm
01:45 -3.8 °C -5.2 °C 34303.6 hPa ENE 5.1 km/h 12.9 km/h 86 % 0 mm
01:49 -3.8 °C -5.1 °C 34300.2 hPa NE 5.1 km/h 15.6 km/h 87 % 0 mm
01:54 -3.8 °C -5.1 °C 34303.6 hPa NE 7.7 km/h 15.6 km/h 87 % 0 mm
01:59 -3.8 °C -5.1 °C 34300.2 hPa NE 7.7 km/h 15.6 km/h 87 % 0 mm
02:04 -3.8 °C -5.1 °C 34296.8 hPa NE 7.7 km/h 12.9 km/h 87 % 0 mm
02:09 -3.8 °C -5.2 °C 34296.8 hPa ENE 5.1 km/h 12.9 km/h 86 % 0 mm
02:14 -3.8 °C -5.2 °C 34300.2 hPa ENE 5.1 km/h 12.9 km/h 86 % 0 mm
02:19 -3.8 °C -5.2 °C 34300.2 hPa ENE 7.7 km/h 15.6 km/h 86 % 0 mm
02:24 -3.8 °C -5.2 °C 34296.8 hPa ENE 7.7 km/h 15.6 km/h 86 % 0 mm
02:29 -3.8 °C -5.1 °C 34293.4 hPa NE 7.7 km/h 18.2 km/h 87 % 0 mm
02:35 -3.8 °C -5.1 °C 34290 hPa NE 7.7 km/h 18.2 km/h 87 % 0 mm
02:39 -3.8 °C -5.1 °C 34283.3 hPa ENE 7.7 km/h 12.9 km/h 87 % 0 mm
02:45 -3.8 °C -5.1 °C 34286.6 hPa NE 7.7 km/h 15.6 km/h 87 % 0 mm
02:49 -3.8 °C -5.1 °C 34286.6 hPa NE 7.7 km/h 15.6 km/h 87 % 0 mm
02:54 -3.8 °C -5.1 °C 34283.3 hPa NE 7.7 km/h 15.6 km/h 87 % 0 mm
02:59 -3.8 °C -5.1 °C 34290 hPa NE 7.7 km/h 15.6 km/h 87 % 0 mm
03:04 -3.8 °C -5.1 °C 34279.9 hPa NE 7.7 km/h 18.2 km/h 87 % 0 mm
03:09 -3.8 °C -5.1 °C 34276.5 hPa NE 7.7 km/h 18.2 km/h 87 % 0 mm
03:14 -3.8 °C -5.1 °C 34273.1 hPa NE 7.7 km/h 18.2 km/h 87 % 0 mm
03:19 -3.8 °C -5.1 °C 34273.1 hPa NE 7.7 km/h 20.8 km/h 87 % 0 mm
03:24 -3.8 °C -5.1 °C 34276.5 hPa NE 10.3 km/h 20.8 km/h 87 % 0 mm
03:29 -3.8 °C -5.1 °C 34283.3 hPa ENE 7.7 km/h 15.6 km/h 87 % 0 mm
03:35 -3.8 °C -5.1 °C 34279.9 hPa NE 7.7 km/h 18.2 km/h 87 % 0 mm
03:39 -3.8 °C -5.1 °C 34283.3 hPa NE 7.7 km/h 18.2 km/h 87 % 0 mm
03:44 -3.8 °C -5.1 °C 34279.9 hPa NE 7.7 km/h 20.8 km/h 87 % 0 mm
03:49 -3.8 °C -5.1 °C 34279.9 hPa NE 7.7 km/h 23.3 km/h 87 % 0 mm
03:54 -3.8 °C -5.1 °C 34279.9 hPa NE 10.3 km/h 23.3 km/h 87 % 0 mm
03:59 -3.8 °C -5.2 °C 34279.9 hPa NE 10.3 km/h 23.3 km/h 86 % 0 mm
04:05 -3.8 °C -5.2 °C 34276.5 hPa NE 10.3 km/h 23.3 km/h 86 % 0 mm
04:09 -3.8 °C -5.2 °C 34279.9 hPa NE 10.3 km/h 20.8 km/h 86 % 0 mm
04:14 -3.8 °C -5.2 °C 34290 hPa NE 10.3 km/h 20.8 km/h 86 % 0 mm
04:19 -3.8 °C -5.2 °C 34283.3 hPa NNE 7.7 km/h 18.2 km/h 86 % 0 mm
04:24 -3.8 °C -5.2 °C 34290 hPa NNE 7.7 km/h 18.2 km/h 86 % 0 mm
04:29 -3.8 °C -5.2 °C 34286.6 hPa NNE 7.7 km/h 15.6 km/h 86 % 0 mm
04:35 -3.8 °C -5.2 °C 34283.3 hPa NNE 5.1 km/h 15.6 km/h 86 % 0 mm
04:39 -3.8 °C -5.2 °C 34286.6 hPa NNE 5.1 km/h 18.2 km/h 86 % 0 mm
04:44 -3.8 °C -5.2 °C 34283.3 hPa NNE 5.1 km/h 18.2 km/h 86 % 0 mm
04:49 -3.8 °C -5.3 °C 34279.9 hPa NE 5.1 km/h 20.8 km/h 85 % 0 mm
04:54 -3.8 °C -5.3 °C 34276.5 hPa NE 7.7 km/h 20.8 km/h 85 % 0 mm
04:59 -3.8 °C -5.3 °C 34279.9 hPa NNE 7.7 km/h 18.2 km/h 85 % 0 mm
05:05 -3.8 °C -5.3 °C 34279.9 hPa NNE 7.7 km/h 15.6 km/h 85 % 0 mm
05:09 -3.8 °C -5.3 °C 34293.4 hPa NNE 5.1 km/h 15.6 km/h 85 % 0 mm
05:14 -3.8 °C -5.3 °C 34286.6 hPa NNE 7.7 km/h 20.8 km/h 85 % 0 mm
05:19 -3.8 °C -5.3 °C 34283.3 hPa NE 7.7 km/h 20.8 km/h 85 % 0 mm
05:25 -3.8 °C -5.3 °C 34286.6 hPa NE 7.7 km/h 18.2 km/h 85 % 0 mm
05:29 -3.8 °C -5.3 °C 34279.9 hPa NE 5.1 km/h 15.6 km/h 85 % 0 mm
05:34 -3.8 °C -5.2 °C 34279.9 hPa NE 5.1 km/h 15.6 km/h 86 % 0 mm
05:39 -3.8 °C -5.2 °C 34276.5 hPa NE 7.7 km/h 23.3 km/h 86 % 0 mm
05:44 -3.8 °C -5.2 °C 34279.9 hPa NE 10.3 km/h 23.3 km/h 86 % 0 mm
05:49 -3.8 °C -5.2 °C 34283.3 hPa NE 10.3 km/h 18.2 km/h 86 % 0 mm
05:54 -3.8 °C -5.2 °C 34279.9 hPa NNE 7.7 km/h 12.9 km/h 86 % 0 mm
06:00 -3.8 °C -5.1 °C 34276.5 hPa NNE 5.1 km/h 12.9 km/h 87 % 0 mm
06:04 -3.8 °C -5.1 °C 34276.5 hPa North 5.1 km/h 12.9 km/h 87 % 0 mm
06:09 -3.8 °C -5.1 °C 34273.1 hPa NNW 5.1 km/h 12.9 km/h 87 % 0 mm
06:14 -3.8 °C -5.1 °C 34276.5 hPa NNW 7.7 km/h 15.6 km/h 87 % 0 mm
06:19 -3.8 °C -5.1 °C 34283.3 hPa North 7.7 km/h 23.3 km/h 87 % 0 mm
06:24 -3.8 °C -5.1 °C 34283.3 hPa NNE 7.7 km/h 23.3 km/h 87 % 0 mm
06:29 -3.8 °C -5.2 °C 34286.6 hPa NNE 7.7 km/h 15.6 km/h 86 % 0 mm
06:34 -3.8 °C -5.2 °C 34283.3 hPa NNE 5.1 km/h 20.8 km/h 86 % 0 mm
06:39 -3.8 °C -5.2 °C 34283.3 hPa NNE 5.1 km/h 20.8 km/h 86 % 0 mm
Ulpukkaniemen harrastesääasema
Terveisin Weather Underground - 1.75 mb

Alkuperäinen skripti  Jim McMurry - jmcmurry@mwt.net Sovitettu myös templatelle  Wim van der Kuil - Leuven-Template.eu

Laitteet joita käytämme:

Sääasema
WS3083

Sääasemaohjelma
Cumulus

Sääaseman tietokone
RaspberryPI

Palveluntarjoaja
Suncomet

WS3083

Cumulus

RaspberryPI

Suncomet